, AK

(GMT )
Shemya

Weather History for PASY - December, 2012

Change the Weather History Date:

Saturday, December 8, 2012

  Actual Average Record
Temperature  
Mean Temperature 30 °F -  
Max Temperature 33 °F 36 °F 42 °F (2004)
Min Temperature 28 °F 30 °F 21 °F (1998)
Degree Days  
Heating Degree Days 34    
Moisture  
Dew Point 23 °F    
Average Humidity 75    
Maximum Humidity 86    
Minimum Humidity 55    
Precipitation  
Precipitation 0.00 in - - ()
Sea Level Pressure  
Sea Level Pressure 29.59 in    
Wind  
Wind Speed 27 mph (North)    
Max Wind Speed 33 mph    
Max Gust Speed 45 mph    
Visibility 6 miles    
Events Snow    
Averages and records for this station are not official NWS values.
T = Trace of Precipitation, MM = Missing Value Source: NWS Daily Summary

Daily Weather History Graph

Daily Weather History Graph

Search for Another Location

Airport or City:

Trip Planner

Search our weather history database for the weather conditions in past years. The results will help you decide how hot, cold, wet, or windy it might be!

Date:

Astronomy

Dec. 07, 2012 Rise Set
Actual Time 10:21 AM HST 6:08 PM HST
Civil Twilight 9:40 AM HST 6:50 PM HST
Nautical Twilight 8:56 AM HST 7:34 PM HST
Astronomical Twilight 8:14 AM HST 8:16 PM HST
Moon 4:32 AM HST (12/8) 3:17 PM HST (12/8)
Length of Visible Light 9h 09m
Length of Day
7h 47m
Waning Crescent, 26% of the Moon is Illuminated
Dec 8
Waning Crescent
Dec 12
New
Dec 19
First Quarter
Dec 28
Full
Jan 4
Last Quarter

Hourly Weather History & Observations

Time (HST) Temp. Windchill Dew Point Humidity Pressure Visibility Wind Dir Wind Speed Gust Speed Precip Events Conditions
12:56 AM 32.0 °F 17.4 °F 18.0 °F 56% 29.70 in 10.0 mi North 31.1 mph 34.5 mph N/A   Overcast
1:56 AM 30.0 °F 15.4 °F 24.1 °F 79% 29.68 in 4.0 mi North 27.6 mph 38.0 mph N/A Snow Light Snow
2:14 AM 30.2 °F 15.9 °F 23.0 °F 75% 29.66 in 10.0 mi North 26.5 mph 34.5 mph N/A   Mostly Cloudy
2:56 AM 28.9 °F 14.5 °F 23.0 °F 78% 29.66 in 4.0 mi North 25.3 mph 42.6 mph N/A Snow Light Snow
3:04 AM 30.2 °F 16.2 °F 23.0 °F 75% 29.64 in 6.2 mi North 25.3 mph 31.1 mph N/A Snow Light Snow
3:13 AM 32.0 °F 17.9 °F 21.2 °F 64% 29.64 in 6.2 mi North 28.8 mph 36.8 mph N/A   Mostly Cloudy
3:56 AM 30.9 °F 16.4 °F 23.0 °F 72% 29.65 in 7.0 mi North 28.8 mph 34.5 mph N/A Snow Light Snow
4:11 AM 32.0 °F 18.4 °F 19.4 °F 60% 29.63 in 6.2 mi North 26.5 mph 35.7 mph N/A Snow Light Snow
4:56 AM 32.0 °F 17.6 °F 21.0 °F 64% 29.62 in 10.0 mi North 29.9 mph 34.5 mph N/A   Mostly Cloudy
5:56 AM 30.0 °F 15.7 °F 23.0 °F 75% 29.61 in 6.0 mi North 26.5 mph 41.4 mph N/A Snow Light Snow
6:49 AM 30.2 °F 15.7 °F 23.0 °F 75% 29.59 in - North 27.6 mph 44.9 mph N/A Snow Light Snow
6:56 AM 30.9 °F 17.8 °F 21.9 °F 69% 29.60 in 9.0 mi North 23.0 mph 34.5 mph N/A   Mostly Cloudy
7:22 AM 28.4 °F 12.0 °F 23.0 °F 80% 29.59 in 1.8 mi North 33.4 mph 42.6 mph N/A Snow Light Snow
7:24 AM 28.4 °F 12.5 °F 24.8 °F 86% 29.59 in 1.2 mi North 31.1 mph 42.6 mph N/A   Mostly Cloudy
7:29 AM 28.4 °F 13.0 °F 24.8 °F 86% 29.59 in 1.5 mi North 28.8 mph 39.1 mph N/A   Mostly Cloudy
7:31 AM 28.4 °F 12.5 °F 24.8 °F 86% 29.58 in - North 31.1 mph 39.1 mph N/A   Mostly Cloudy
7:34 AM 30.2 °F 15.7 °F 24.8 °F 80% 29.59 in 6.0 mi North 27.6 mph 35.7 mph N/A   Mostly Cloudy
7:56 AM 30.9 °F 16.4 °F 23.0 °F 72% 29.59 in 5.0 mi North 28.8 mph 33.4 mph N/A Snow Light Snow
8:07 AM 30.2 °F 16.2 °F 26.6 °F 86% 29.58 in 4.0 mi NNE 25.3 mph 28.8 mph N/A Snow Light Snow
8:27 AM 32.0 °F 17.6 °F 19.4 °F 60% 29.58 in 10.0 mi North 29.9 mph 36.8 mph N/A   Mostly Cloudy
8:56 AM 32.0 °F 18.4 °F 23.0 °F 69% 29.58 in 10.0 mi NNW 26.5 mph 34.5 mph N/A   Scattered Clouds
9:06 AM 28.4 °F 13.0 °F 21.2 °F 74% 29.58 in 1.8 mi North 28.8 mph 44.9 mph N/A Snow Light Snow
9:08 AM 28.4 °F 13.5 °F 21.2 °F 74% 29.58 in 1.5 mi North 26.5 mph 44.9 mph N/A Snow Light Snow
9:14 AM 28.4 °F 13.5 °F 24.8 °F 86% 29.58 in 2.5 mi North 26.5 mph 31.1 mph N/A Snow Light Snow
9:21 AM 30.2 °F 15.2 °F 23.0 °F 75% 29.57 in 6.2 mi North 29.9 mph 35.7 mph N/A   Mostly Cloudy
9:33 AM 30.2 °F 14.7 °F 23.0 °F 75% 29.57 in 10.0 mi North 32.2 mph 35.7 mph N/A   Mostly Cloudy
9:51 AM 28.4 °F 12.7 °F 23.0 °F 80% 29.57 in 2.5 mi North 29.9 mph 39.1 mph N/A Snow Light Snow
9:56 AM 30.0 °F 16.3 °F 23.0 °F 75% 29.57 in 3.0 mi North 24.2 mph 39.1 mph N/A Snow Light Snow
10:08 AM 30.2 °F 16.8 °F 17.6 °F 60% 29.57 in 10.0 mi North 23.0 mph 38.0 mph N/A   Scattered Clouds
10:56 AM 32.0 °F 18.1 °F 19.0 °F 59% 29.58 in 10.0 mi North 27.6 mph 36.8 mph N/A   Mostly Cloudy
11:56 AM 30.9 °F 18.4 °F 23.0 °F 72% 29.57 in 10.0 mi North 20.7 mph 32.2 mph N/A   Scattered Clouds
12:56 PM 32.0 °F 18.1 °F 21.0 °F 64% 29.57 in 10.0 mi North 27.6 mph 36.8 mph N/A   Mostly Cloudy
1:56 PM 30.9 °F 18.7 °F 24.1 °F 76% 29.57 in 10.0 mi NNW 19.6 mph 29.9 mph N/A   Overcast
2:56 PM 30.9 °F 17.5 °F 24.1 °F 76% 29.56 in 10.0 mi North 24.2 mph 34.5 mph N/A Snow Light Snow
3:25 PM 30.2 °F 14.9 °F 24.8 °F 80% 29.55 in 1.8 mi North 31.1 mph 38.0 mph N/A Snow Light Snow
3:27 PM 28.4 °F 12.7 °F 24.8 °F 86% 29.55 in 1.2 mi NNW 29.9 mph 38.0 mph N/A Snow Light Snow
3:32 PM 28.4 °F 13.3 °F 24.8 °F 86% 29.55 in 0.8 mi NNW 27.6 mph 35.7 mph N/A Snow Light Snow
3:35 PM 28.4 °F 14.1 °F 24.8 °F 86% 29.55 in 1.0 mi NNW 24.2 mph 33.4 mph N/A Snow Light Snow
3:37 PM 28.4 °F 14.4 °F 24.8 °F 86% 29.55 in 1.8 mi NNW 23.0 mph 33.4 mph N/A Snow Light Snow
3:40 PM 30.2 °F 17.4 °F 26.6 °F 86% 29.55 in 3.0 mi NNW 20.7 mph 33.4 mph N/A Snow Light Snow
3:56 PM 30.9 °F 17.5 °F 21.0 °F 67% 29.55 in 10.0 mi North 24.2 mph - N/A   Scattered Clouds
4:30 PM 28.4 °F 13.5 °F 24.8 °F 86% 29.55 in 2.5 mi North 26.5 mph 39.1 mph N/A Snow Light Snow
4:39 PM 30.2 °F 18.5 °F 24.8 °F 80% 29.54 in 7.0 mi North 17.3 mph 32.2 mph N/A Snow Light Snow
4:56 PM 32.0 °F 19.8 °F 21.9 °F 66% 29.55 in 10.0 mi NNW 20.7 mph 28.8 mph N/A   Overcast
5:56 PM 30.9 °F 17.2 °F 23.0 °F 72% 29.57 in 10.0 mi North 25.3 mph 31.1 mph N/A   Mostly Cloudy
6:16 PM 28.4 °F 14.4 °F 24.8 °F 86% 29.58 in 1.8 mi North 23.0 mph 27.6 mph N/A Snow Light Snow
6:18 PM 28.4 °F 15.4 °F 24.8 °F 86% 29.58 in 1.2 mi North 19.6 mph 26.5 mph N/A Snow Light Snow
6:22 PM 28.4 °F 16.6 °F 24.8 °F 86% 29.57 in 1.5 mi North 16.1 mph 26.5 mph N/A Snow Light Snow
6:24 PM 28.4 °F 17.5 °F 24.8 °F 86% 29.57 in 2.0 mi North 13.8 mph - N/A Snow Light Snow
6:32 PM 30.2 °F 18.1 °F 26.6 °F 86% 29.57 in 9.0 mi NNW 18.4 mph 23.0 mph N/A Snow Light Snow
6:56 PM 30.9 °F 17.8 °F 24.1 °F 76% 29.58 in 7.0 mi North 23.0 mph 31.1 mph N/A Snow Light Snow
7:56 PM 30.9 °F 17.5 °F 21.0 °F 67% 29.58 in 10.0 mi North 24.2 mph 27.6 mph N/A   Partly Cloudy
8:44 PM 28.4 °F 15.8 °F 23.0 °F 80% 29.59 in 3.0 mi North 18.4 mph 35.7 mph N/A Snow Light Snow
8:56 PM 28.9 °F 15.8 °F 24.1 °F 82% 29.59 in 9.0 mi North 20.7 mph 25.3 mph N/A   Scattered Clouds
9:56 PM 30.0 °F 16.6 °F 21.9 °F 72% 29.60 in 10.0 mi NNW 23.0 mph - N/A   Scattered Clouds
10:56 PM 30.0 °F 17.9 °F 21.9 °F 72% 29.61 in 10.0 mi NNW 18.4 mph - N/A   Partly Cloudy
11:56 PM 30.9 °F 19.4 °F 18.0 °F 59% 29.62 in 10.0 mi North 17.3 mph - N/A   Partly Cloudy